Terminal Aerodrome Forecast
Issued by NWS

Current Version | Previous Version | Graphics & Text | Print | Product List | Glossary On
Versions: 1 2 3 4 5 6 7 8 9 10 11 12 13 14 15 16 17 18 19
000
FTUS41 KRLX 220500 RRA
TAFCKB
TAF
KCKB 220556Z 2206/2306 VRB03KT 6SM -SHRASN BR OVC020
     FM220800 32007KT P6SM -SHSN OVC015
      TEMPO 2208/2212 4SM -SHSN BKN010
     FM222100 30004KT P6SM OVC020
     FM230100 00000KT P6SM OVC015=

USA.gov is the U.S. government's official web portal to all federal, state and local government web resources and services.